Regional Weather Roundup
Issued by NWS

Home | Current Version | Previous Version | Graphics & Text | Print | Product List | Glossary On
Versions: 1 2 3 4 5 6 7 8 9 10 11 12 13 14 15 16 17 18 19 20 21 22 23 24 25 26 27 28 29 30 31 32 33 34 35 36 37 38 39 40 41 42 43 44 45 46 47 48 49 50
000
ASUS43 KIND 231309
RWRIN

WEATHER ROUNDUP FOR INDIANA
NATIONAL WEATHER SERVICE INDIANAPOLIS IN
900 AM EDT TUE SEP 23 2014

NOTE: "FAIR" INDICATES FEW OR NO CLOUDS BELOW 12,000 FEET WITH NO
SIGNIFICANT WEATHER AND/OR OBSTRUCTIONS TO VISIBILITY.

* - STATION DOES NOT REPORT WEATHER SUCH AS PRECIPITATION OR FOG.

+ - STATION NOT QUALITY CONTROLLED BY THE NATIONAL WEATHER SERVICE.
    USE DATA WITH CAUTION...ESPECIALLY DEWPOINT AND RELATIVE
    HUMIDITY OBSERVATIONS.

INZ001>003-010>013-019-020-231400-
NORTHWEST INDIANA

CITY           SKY/WX    TMP DP  RH WIND       PRES   REMARKS
GARY /AIRPORT/ SUNNY     52  46  82 S3        30.35R
KNOX *+        SUNNY     45  43  94 CALM      30.35R
LA PORTE +     SUNNY     47  47 100 CALM      30.35R
MICHIGAN CITY+ MOSUNNY   46  46 100 CALM      30.34S
MONTICELLO +   SUNNY     49  48  99 CALM      30.34S
RENSSELAER +   SUNNY     46  46 100 CALM      30.35R
VALPARAISO     SUNNY     50  46  86 S3        30.35R

$$

LMZ046-743>745-231400-
SOUTHERN LAKE MICHIGAN

STATION/POSITION TIME  TEMP WIND        PRES
                       AIR  DIR/SP/G
                 (UTC) (F)  (DEG/KT/KT) (MB)

$$

INZ004-005-014>016-021>024-231400-
NORTH CENTRAL INDIANA

CITY           SKY/WX    TMP DP  RH WIND       PRES   REMARKS
ELKHART        SUNNY     46  46 100 CALM      30.35R
GOSHEN         SUNNY    N/A N/A N/A CALM      30.34S
LOGANSPORT +   SUNNY     46  46 100 CALM      30.36R
PERU/GRISSOM   SUNNY     49  49 100 SE2       30.34R
ROCHESTER +    SUNNY     50  50 100 CALM      30.35S
SOUTH BEND     SUNNY     50  46  86 SW5       30.36R
WARSAW +       SUNNY     45  45 100 CALM      30.35R

$$

INZ006>009-017-018-025>027-231400-
NORTHEAST INDIANA

CITY           SKY/WX    TMP DP  RH WIND       PRES   REMARKS
ANGOLA *+      SUNNY     46  46 100 CALM      30.34S
AUBURN +       SUNNY     48  45  87 CALM      30.35S
FORT WAYNE     SUNNY     50  47  89 CALM      30.36R
HUNTINGTON +   SUNNY     48  48 100 CALM      30.35R

$$

INZ028-029-035-036-043>045-051>053-231400-
WEST CENTRAL INDIANA

CITY           SKY/WX    TMP DP  RH WIND       PRES   REMARKS
GREENCASTLE +  SUNNY     46  46 100 CALM      30.34S
LAFAYETTE      SUNNY     48  47  96 CALM      30.35R
TERRE HAUTE    SUNNY     49  47  93 CALM      30.33S

$$

INZ030>032-037>040-046>048-054>057-064-065-231400-
CENTRAL INDIANA

CITY           SKY/WX    TMP DP  RH WIND       PRES   REMARKS
ANDERSON       SUNNY     46  46 100 CALM      30.36
CP ATTERBURY + SUNNY     45  45 100 CALM      30.36R
COLUMBUS       SUNNY     46  46 100 CALM      30.35
FRANKFORT +    SUNNY    N/A N/A N/A CALM      30.35S
GREENWOOD *+   SUNNY     50  48  93 CALM      30.36R
INDIANAPOLIS   SUNNY     53  46  77 CALM      30.35R
-EAGLE CREEK   SUNNY     53  46  77 CALM      30.34R
KOKOMO *+      SUNNY     48  45  87 CALM      30.35S
MARION +       SUNNY     47  46  95 CALM      30.36R
MT COMFORT *+  SUNNY     48  48 100 CALM      30.34R
SHELBYVILLE    SUNNY     51  46  83 CALM      30.34R
ZIONSVILLE +   SUNNY     49  47  91 CALM      30.35R

$$

INZ033-034-041-042-049-050-058-059-231400-
EAST CENTRAL INDIANA

CITY           SKY/WX    TMP DP  RH WIND       PRES   REMARKS
MUNCIE         SUNNY     48  46  93 CALM      30.35R

$$

INZ060-061-067>069-081>083-085>088-231400-
SOUTHWEST INDIANA

CITY           SKY/WX    TMP DP  RH WIND       PRES   REMARKS
EVANSVILLE     SUNNY     53  48  83 NE3       30.32R
WASHINGTON +   SUNNY     47  47 100 CALM      30.32S

$$

INZ062-063-066-070>080-084-089>092-231400-
SOUTH CENTRAL AND SOUTHEAST INDIANA

CITY           SKY/WX    TMP DP  RH WIND       PRES   REMARKS
BLOOMINGTON    SUNNY     49  46  90 CALM      30.33S
SEYMOUR +      SUNNY     48  48 100 CALM      30.34

$$




USA.gov is the U.S. government's official web portal to all federal, state and local government web resources and services.